Waarnemingen

Advertentie
Mijn weer
Antwerpen, België (6450): temperatuur & dauwpunt: 12.02.2019 18:00:00 - 18.02.2019 18:00:00 (CET)Antwerpen, België (6450): windsnelheid & windstoten: 12.02.2019 18:00:00 - 18.02.2019 18:00:00 (CET)Antwerpen, België (6450): windrichting: 12.02.2019 18:00:00 - 18.02.2019 18:00:00 (CET)Antwerpen, België (6450): luchtdruk: 12.02.2019 18:00:00 - 18.02.2019 18:00:00 (CET)Antwerpen, België (6450): zicht: 12.02.2019 18:00:00 - 18.02.2019 18:00:00 (CET)
Datum & Tijd tt [°C] td [°C] ff [km/u] ff [kn] fx [km/u] fx [kn] dd ppp [hPa] vv [km]
18.02.2019 18:00:00 12,9 3,8 9 5 18 10 Z 1015,4 10
18.02.2019 17:00:00 14,2 3,8 11 6 22 12 ZW 1015,6 10
18.02.2019 16:00:00 14,7 2,9 9 5 - - ZZW 1015,5 10
18.02.2019 15:00:00 14,2 1,9 11 6 18 10 ZZW 1015,9 10
18.02.2019 14:00:00 13,8 0,8 9 5 18 10 ZZW 1016,6 10
18.02.2019 13:00:00 12,9 1,1 11 6 - - ZZW 1017,4 10
18.02.2019 12:00:00 12,2 1,4 11 6 18 10 ZZW 1018,1 10
18.02.2019 11:00:00 10,7 0,3 11 6 14 8 ZW 1018,4 10
18.02.2019 10:00:00 8,2 0,8 4 2 - - - 1018,5 10
18.02.2019 09:00:00 2,1 -0,6 5 3 7 4 OZO 1018,7 10
18.02.2019 08:00:00 1,0 -1,2 2 1 7 4 - 1018,6 10
18.02.2019 07:00:00 0,3 -1,4 4 2 - - ZO 1018,7 10
18.02.2019 06:00:00 0,5 -0,8 5 3 4 2 ZO 1018,8 10
18.02.2019 05:00:00 2,6 -0,7 4 2 7 4 ZO 1018,7 10
18.02.2019 04:00:00 0,5 -1,3 5 3 - - Z 1019,0 10
18.02.2019 03:00:00 0,4 -1,2 5 3 7 4 ZZO 1019,3 10
18.02.2019 02:00:00 0,9 -1,1 4 2 4 2 ZO 1019,4 10
18.02.2019 01:00:00 1,7 -1,0 4 2 - - O 1019,5 10
18.02.2019 00:00:00 3,9 0,7 5 3 7 4 ZZO 1019,3 10
17.02.2019 23:00:00 9,2 0,5 5 3 14 8 Z 1019,6 10
17.02.2019 22:00:00 10,5 0,5 9 5 - - Z 1019,6 10
17.02.2019 21:00:00 10,6 0,6 5 3 11 6 ZW 1019,4 10
17.02.2019 20:00:00 12,1 0,4 8 4 18 10 Z 1019,3 10
17.02.2019 19:00:00 13,2 0,1 11 6 - - ZZW 1019,0 10
17.02.2019 18:00:00 14,5 -1,0 11 6 22 12 ZZW 1018,5 10
17.02.2019 17:00:00 16,0 -1,6 13 7 29 16 ZZW 1018,3 10
17.02.2019 16:00:00 16,9 -1,5 21 11 - - Z 1018,3 10
17.02.2019 15:00:00 17,3 -0,4 16 9 25 14 Z 1018,9 10
17.02.2019 14:00:00 15,2 1,8 11 6 22 12 ZZO 1019,3 10
17.02.2019 13:00:00 14,1 2,0 13 7 - - ZZO 1020,0 10
17.02.2019 12:00:00 11,9 3,1 11 6 22 12 ZZO 1020,5 10
17.02.2019 11:00:00 9,3 2,0 13 7 18 10 Z 1020,8 10
17.02.2019 10:00:00 3,6 1,6 8 4 - - ZO 1021,1 10
17.02.2019 09:00:00 1,7 -0,1 5 3 7 4 OZO 1021,2 10
17.02.2019 08:00:00 0,9 -0,5 5 3 7 4 ZO 1021,4 10
17.02.2019 07:00:00 0,9 -0,6 4 2 - - O 1021,6 10
17.02.2019 06:00:00 -0,5 -1,3 5 3 7 4 OZO 1022,1 8
17.02.2019 05:00:00 -0,3 -1,4 5 3 7 4 ZO 1022,4 7
17.02.2019 04:00:00 -0,2 -1,5 5 3 - - ZO 1022,9 6
17.02.2019 03:00:00 0,8 -0,6 4 2 7 4 O 1023,6 6
17.02.2019 02:00:00 2,7 0,5 4 2 7 4 ZO 1024,0 6
17.02.2019 01:00:00 0,6 -0,7 8 4 - - ZZO 1024,2 5
17.02.2019 00:00:00 0,9 -0,4 5 3 7 4 OZO 1024,6 6
16.02.2019 23:00:00 2,0 0,6 4 2 7 4 OZO 1024,9 10
16.02.2019 22:00:00 2,8 0,8 4 2 - - ZZO 1024,9 10
16.02.2019 21:00:00 4,8 1,5 2 1 4 2 Z 1024,8 10
16.02.2019 20:00:00 5,2 1,7 4 2 7 4 ZZO 1025,0 10
16.02.2019 19:00:00 7,2 2,6 4 2 - - ZZO 1025,1 10
16.02.2019 18:00:00 12,9 3,0 5 3 14 8 Z 1024,9 10
16.02.2019 17:00:00 14,3 3,3 11 6 22 12 ZZW 1025,2 10
16.02.2019 16:00:00 14,4 3,3 13 7 - - ZW 1025,4 10
16.02.2019 15:00:00 14,7 4,2 15 8 22 12 ZZW 1025,5 10
16.02.2019 14:00:00 14,3 4,2 15 8 22 12 ZZW 1025,8 10
16.02.2019 13:00:00 12,2 3,2 13 7 - - ZW 1026,2 10
16.02.2019 12:00:00 10,8 2,2 13 7 22 12 WZW 1026,6 10
16.02.2019 11:00:00 9,6 2,0 13 7 18 10 ZW 1026,5 10
16.02.2019 10:00:00 7,5 1,3 9 5 - - ZZW 1026,5 10
16.02.2019 09:00:00 0,4 -1,2 5 3 7 4 Z 1026,1 10
16.02.2019 08:00:00 -0,2 -2,2 5 3 11 6 ZZW 1025,7 10
16.02.2019 07:00:00 0,2 -1,7 4 2 - - ZZO 1025,6 10
16.02.2019 06:00:00 -1,1 -2,5 9 5 11 6 Z 1025,5 10
16.02.2019 05:00:00 0,2 -1,9 9 5 11 6 Z 1025,4 10
16.02.2019 04:00:00 6,0 0,5 5 3 - - Z 1025,5 10
16.02.2019 03:00:00 6,0 0,2 9 5 11 6 ZZW 1026,0 5
16.02.2019 02:00:00 1,2 -1,0 5 3 11 6 ZZW 1026,4 10
16.02.2019 01:00:00 2,0 -0,9 5 3 - - ZZO 1026,5 10
16.02.2019 00:00:00 4,1 -0,4 4 2 14 8 Z 1026,5 10
15.02.2019 23:00:00 3,4 -0,3 11 6 14 8 Z 1026,4 10
15.02.2019 22:00:00 2,7 0,6 8 4 - - Z 1026,6 10
15.02.2019 21:00:00 5,4 1,5 4 2 7 4 ZZO 1026,9 10
15.02.2019 20:00:00 5,5 1,8 5 3 7 4 ZO 1027,3 10
15.02.2019 19:00:00 7,5 2,0 4 2 - - OZO 1027,6 10
15.02.2019 18:00:00 12,0 2,4 8 4 11 6 OZO 1027,5 10
15.02.2019 17:00:00 13,7 4,2 9 5 14 8 OZO 1027,8 10
15.02.2019 16:00:00 15,8 3,9 9 5 - - ZO 1028,3 10
15.02.2019 15:00:00 16,3 0,3 11 6 14 8 ZO 1029,0 10
15.02.2019 14:00:00 15,9 0,3 9 5 18 10 ZO 1029,8 10
15.02.2019 13:00:00 13,9 2,5 8 4 - - ZO 1030,6 10
15.02.2019 12:00:00 10,9 2,0 8 4 11 6 ZO 1031,2 10
15.02.2019 11:00:00 8,2 1,1 8 4 11 6 ZO 1031,4 10
15.02.2019 10:00:00 4,5 -0,1 5 3 - - OZO 1031,6 10
15.02.2019 09:00:00 1,2 -2,7 5 3 7 4 OZO 1031,9 10
15.02.2019 08:00:00 -1,0 -2,8 5 3 7 4 OZO 1031,6 10
15.02.2019 07:00:00 -0,8 -2,2 2 1 - - OZO 1031,7 10
15.02.2019 06:00:00 - - 2 1 7 4 O - 10
15.02.2019 05:00:00 - - 4 2 7 4 OZO - 10
15.02.2019 04:00:00 - - 5 3 - - O - 10
15.02.2019 03:00:00 - - 2 1 7 4 O - 10
15.02.2019 02:00:00 - - 4 2 7 4 O - 10
15.02.2019 01:00:00 - - 2 1 - - ZO - 10
15.02.2019 00:00:00 - - 5 3 7 4 OZO - 10
14.02.2019 23:00:00 1,9 -0,8 5 3 7 4 ZO 1033,0 10
14.02.2019 22:00:00 2,6 -0,3 2 1 - - ONO 1033,0 10
14.02.2019 21:00:00 3,8 0,0 2 1 4 2 OZO 1033,1 10
14.02.2019 20:00:00 4,9 0,1 2 1 4 2 - 1033,3 10
14.02.2019 19:00:00 8,1 -0,2 4 2 - - - 1033,4 10
14.02.2019 18:00:00 10,9 0,6 5 3 11 6 ZO 1033,1 10
14.02.2019 17:00:00 12,9 1,0 8 4 18 10 OZO 1033,5 10
14.02.2019 16:00:00 13,6 2,2 11 6 - - OZO 1034,0 10
14.02.2019 15:00:00 12,2 1,3 11 6 14 8 ZO 1034,4 10
14.02.2019 14:00:00 11,3 1,5 5 3 14 8 O 1035,2 10
14.02.2019 13:00:00 10,2 1,9 5 3 - - OZO 1035,6 10
14.02.2019 12:00:00 8,1 2,0 5 3 11 6 OZO 1036,2 10
14.02.2019 11:00:00 5,7 1,3 5 3 11 6 ZZO 1036,0 10
14.02.2019 10:00:00 2,4 0,5 8 4 - - ZO 1036,3 10
14.02.2019 09:00:00 -0,3 -1,4 5 3 7 4 ZZO 1036,4 8
14.02.2019 08:00:00 -1,1 -2,1 4 2 4 2 O 1035,9 9
14.02.2019 07:00:00 -1,9 -2,5 4 2 - - ZZO 1035,3 9
14.02.2019 06:00:00 -1,9 -2,7 4 2 7 4 - 1035,1 3,2
14.02.2019 05:00:00 -1,0 -1,5 2 1 11 6 OZO 1035,2 5
14.02.2019 04:00:00 -0,8 -1,3 4 2 - - - 1035,2 4,8
14.02.2019 03:00:00 -0,7 -1,5 4 2 4 2 O 1035,4 4,3
14.02.2019 02:00:00 -0,6 -1,2 0 0 4 2 N 1035,5 2,3
14.02.2019 01:00:00 1,1 0,2 4 2 - - OZO 1035,5 3,7
14.02.2019 00:00:00 0,1 -0,6 5 3 7 4 ZO 1035,4 6
13.02.2019 23:00:00 2,4 0,5 5 3 11 6 ZZO 1035,6 10
13.02.2019 22:00:00 4,8 1,2 8 4 - - ZZW 1035,7 10
13.02.2019 21:00:00 5,0 1,1 5 3 11 6 Z 1035,7 10
13.02.2019 20:00:00 5,8 1,3 9 5 11 6 ZZW 1035,9 10
13.02.2019 19:00:00 6,7 2,0 8 4 - - ZW 1035,9 10
13.02.2019 18:00:00 7,3 1,7 9 5 22 12 ZZW 1035,6 10
13.02.2019 17:00:00 8,0 1,5 13 7 22 12 ZZW 1035,7 10
13.02.2019 16:00:00 8,8 1,5 14 8 - - ZW 1035,7 15
13.02.2019 15:00:00 8,2 1,4 13 7 22 12 ZZW 1035,6 10
13.02.2019 14:00:00 7,9 0,7 13 7 22 12 WZW 1036,2 10
13.02.2019 13:00:00 7,3 0,9 16 9 - - ZW 1036,9 10
13.02.2019 12:00:00 6,4 0,8 15 8 25 14 ZW 1037,0 10
13.02.2019 11:00:00 5,7 0,9 15 8 25 14 ZW 1036,7 10
13.02.2019 10:00:00 4,1 0,4 16 9 - - ZW 1036,6 10
13.02.2019 09:00:00 3,5 0,6 11 6 18 10 ZZW 1036,5 10
13.02.2019 08:00:00 3,5 0,7 11 6 18 10 ZW 1036,2 10
13.02.2019 07:00:00 3,4 0,6 13 7 - - ZW 1035,9 10
13.02.2019 06:00:00 3,4 0,7 13 7 25 14 ZZW 1035,9 9
13.02.2019 05:00:00 3,6 0,9 15 8 25 14 ZW 1035,9 9
13.02.2019 04:00:00 3,8 1,1 16 9 - - ZZW 1035,9 10
13.02.2019 03:00:00 3,9 1,6 15 8 22 12 ZZW 1036,1 9
13.02.2019 02:00:00 4,0 1,6 15 8 22 12 ZW 1036,4 9
13.02.2019 01:00:00 3,9 1,8 15 8 - - ZW 1036,2 9
13.02.2019 00:00:00 4,3 2,1 16 9 22 12 ZW 1036,1 9
12.02.2019 23:00:00 4,8 2,5 15 8 22 12 ZW 1035,8 10
12.02.2019 22:00:00 5,6 2,4 13 7 - - ZZW 1035,6 10
12.02.2019 21:00:00 6,3 2,7 13 7 22 12 ZW 1035,6 10
12.02.2019 20:00:00 6,4 2,8 13 7 18 10 ZZW 1035,2 10
12.02.2019 19:00:00 6,6 3,0 11 6 - - ZZW 1035,1 10
12.02.2019 18:00:00 7,6 3,2 9 5 22 12 ZZW 1035,0 10

tt = temperatuur
td = dauwpunt
ff = windsnelheid
fx = windstoten
dd = windrichting
ppp = luchtdruk
vv = zicht

Weerstations in de omgeving